MORELOS 3

Last updated on Tue Oct 08 2024 00:02:40 GMT+0000 (Coordinated Universal Time)

1 40946U 15056A 24281.58796920 -.00000034 00000+0 00000+0 0 9999 2 40946 2.9899 355.7222 0003196 186.7078 292.8612 1.00272510 33097
UTC large
Height (km)
Speed (km/s)
/
Latitude / Longitude
Inclination (degrees)
Orbital Period (minutes)
Azimuth
Elevation
Range (km)
Doppler Factor

Next 0 passes for location: London (51.5072 / 0.1276)

Sorry there are no passes over London.